Zurück zum Katalog

BLITS

AktivWissenschaftSSO
NORAD 35871·PAYLOAD·🇷🇺 Russia

Gestartet Sep 17, 2009 von Baikonur Cosmodrome

Loading…

Nächste Überflüge (nächste 24 Stunden)

TLE

AktuellSource: Space-Track

Epoche: Sep 14, 2026, 03:56 UTC

1 35871U 09049G   26257.16429722 -.00000005  00000-0  17824-4 0  9993
2 35871  98.7778 219.1319 0004473  72.0449 288.1215 14.22188618881120

Verfolge BLITS in Echtzeit mit AllMySat

Download on the App Store